Theta_e
317 317 317 316 315 316 317 317 318 317 317 316 315 314 315 316 319 319 320 325 329 331 328 330 337 337 341 338 340 339 339 341 346 350 349 352 354 355 348 354 352 350 349 347 349
316 317 316 316 316 317 318 317 317 317 317 316 314 314 314 315 318 320 324 324 323 323 325 329 330 329 330 332 337 336 336 338 338 344 348 352 352 350 353 356 354 351 349 349 349
315 316 316 316 316 316 318 318 317 318 317 315 314 314 314 315 318 320 325 327 327 323 324 327 329 330 332 331 333 333 336 335 335 339 345 351 348 345 354 356 352 352 350 348 351
313 314 315 316 316 316 317 318 318 318 316 315 314 313 314 317 322 323 322 323 324 326 326 328 330 333 334 334 333 335 333 334 333 340 347 347 344 354 353 353 350 348 348 348 351
316 314 313 314 315 315 318 318 318 317 315 314 313 313 315 318 317 322 322 323 324 326 327 328 332 332 335 333 332 332 330 329 332 339 345 344 344 349 354 350 347 347 348 349 349
319 319 315 313 314 316 317 318 317 315 315 313 313 313 322 315 319 320 321 321 320 325 327 329 332 331 333 332 333 333 330 328 330 332 341 345 343 347 351 348 349 350 348 348 349
318 318 318 315 314 314 318 318 316 315 314 313 313 317 321 313 319 320 320 320 319 320 321 325 331 332 332 331 329 330 330 328 330 332 332 340 345 348 351 348 350 348 349 351 350
318 318 318 317 316 315 319 316 315 315 313 312 313 319 312 314 315 317 318 318 319 321 321 322 329 329 330 327 327 329 327 329 330 330 330 334 337 341 351 349 349 348 349 349 348
318 318 318 318 318 316 318 315 315 312 312 313 318 315 312 316 318 318 318 318 319 320 322 325 327 326 325 328 328 327 330 332 331 332 332 332 339 343 351 350 350 349 349 352 349
318 318 318 318 317 317 317 313 313 314 315 317 321 315 313 316 320 321 320 318 319 320 322 326 322 325 322 327 332 331 331 330 331 330 341 341 342 343 346 352 351 350 351 344 350
318 318 318 318 317 317 318 316 308 310 319 310 310 311 314 317 316 319 319 319 319 319 322 324 328 330 328 328 329 329 329 330 330 333 342 343 343 344 348 352 353 351 353 341 344
319 318 318 319 318 316 316 312 312 315 315 314 314 314 315 316 316 315 319 319 319 320 323 323 329 327 328 329 329 329 330 328 329 341 342 341 339 342 341 349 351 351 346 349 342
319 318 319 319 317 316 316 316 320 317 314 315 316 317 318 316 317 315 317 317 320 319 322 325 329 327 329 330 330 328 329 327 329 340 339 339 339 337 338 335 341 344 344 342 339
319 318 319 319 317 315 318 318 320 317 316 319 321 319 315 315 316 316 317 318 319 321 321 323 324 329 329 329 328 329 325 328 328 338 342 334 344 334 337 336 339 340 338 344 341
319 318 318 315 316 316 320 321 316 315 318 324 323 320 313 316 317 318 315 316 317 323 324 327 327 327 327 328 327 327 324 323 329 326 335 334 334 331 337 335 334 336 333 336 338
319 318 317 314 315 319 321 321 316 318 325 326 320 319 316 316 317 317 317 318 317 322 323 325 323 324 324 325 325 326 322 318 316 318 323 327 333 331 336 335 336 339 338 337 344
319 319 316 313 317 322 320 315 316 320 322 323 322 315 315 315 317 318 317 319 320 323 325 324 325 323 323 324 321 318 318 321 324 324 323 333 336 332 333 338 338 340 339 345 348
319 319 318 316 319 318 319 318 327 322 325 323 319 314 316 315 316 317 318 317 319 319 317 324 326 322 321 322 323 320 318 321 326 325 329 334 336 332 336 339 339 340 340 347 350
319 318 317 321 318 319 315 322 322 321 325 324 319 316 316 317 316 318 317 316 317 318 323 320 321 320 321 321 321 321 320 318 328 333 333 334 340 337 338 338 339 338 340 349 351
315 315 320 323 320 317 317 321 322 321 325 322 322 319 317 317 317 316 316 317 319 318 318 319 322 320 321 320 321 320 318 323 326 336 342 336 346 342 340 340 338 337 344 351 351
314 316 321 321 318 316 320 321 324 324 324 324 323 322 321 320 315 316 318 319 318 317 317 315 318 320 319 322 322 324 325 326 328 328 333 339 339 335 337 335 337 337 346 350 352
310 320 320 317 317 312 319 322 321 321 321 321 322 320 321 317 317 315 318 320 318 315 318 315 313 318 319 318 326 328 325 328 329 337 334 334 335 335 338 337 335 335 338 348 350
310 312 321 319 318 318 318 322 322 324 322 323 323 322 321 322 320 315 316 318 316 315 316 315 315 316 318 319 330 335 331 328 325 328 336 335 333 335 338 338 336 333 336 346 348
310 327 326 316 313 321 330 327 330 330 325 323 324 324 323 324 317 324 319 318 316 318 333 319 311 315 318 319 328 337 334 331 327 329 331 336 334 333 338 339 338 336 342 346 343
311 322 328 330 329 330 329 330 336 338 330 325 328 326 330 325 331 331 330 322 324 340 317 315 316 319 329 327 331 334 333 330 334 329 334 332 334 334 331 335 336 336 347 343 341
317 321 318 322 325 329 327 334 338 338 334 331 332 332 333 330 333 333 331 328 326 321 317 318 323 331 336 335 336 338 336 333 336 331 334 335 336 330 332 333 335 348 347 340 339
312 314 319 322 327 330 333 336 337 336 335 335 334 335 333 332 330 329 328 327 329 323 323 326 327 328 336 338 331 336 336 336 335 334 333 335 332 335 340 336 341 349 348 341 338
Wind_Speed
17 18 19 20 19 19 18 16 14 13 13 13 13 14 17 21 23 16 4 5 3 4 4 1 3 4 3 2 4 3 3 2 4 6 5 8 6 4 1 5 2 4 6 11 28
19 19 20 20 20 20 19 17 15 13 13 12 11 12 14 19 22 12 10 7 12 11 3 2 1 2 1 3 2 3 2 6 7 6 6 9 6 9 3 3 2 7 14 29 30
20 20 21 22 22 22 20 18 15 14 12 11 10 10 11 13 6 4 9 11 4 11 8 2 2 2 0 2 2 3 4 4 6 5 8 10 5 4 8 3 6 9 16 19 23
24 23 22 22 24 23 21 18 15 14 12 9 8 8 8 3 4 4 8 14 12 5 3 1 3 2 1 3 3 3 9 5 5 7 4 8 8 6 11 6 7 15 21 17 18
26 27 27 27 25 23 21 18 14 12 10 8 6 7 1 0 10 9 16 10 5 4 3 1 3 1 4 5 7 3 5 7 7 7 5 6 7 6 6 4 13 16 17 16 13
27 28 28 29 29 26 21 17 12 9 7 6 4 4 1 5 7 8 6 5 10 4 2 2 3 3 2 4 1 4 7 10 5 5 5 7 3 6 5 12 13 15 15 13 16
27 28 28 30 29 29 21 15 9 6 5 4 2 3 1 14 6 7 9 13 16 6 1 4 3 1 1 6 1 5 6 8 3 6 6 7 3 4 9 15 16 13 12 13 13
28 29 29 31 30 31 20 12 6 3 2 2 0 2 7 8 15 19 21 23 13 3 5 7 8 2 3 4 8 5 5 5 5 5 4 4 7 4 11 16 14 13 12 10 7
29 29 30 32 31 32 17 6 1 2 3 3 2 2 9 10 9 11 13 9 5 4 5 4 5 2 4 3 5 7 2 4 9 6 4 3 3 1 6 11 12 10 9 8 6
31 31 32 33 32 31 9 1 3 4 4 3 1 3 7 3 5 5 3 7 2 3 3 3 4 4 4 5 2 4 4 5 4 7 6 2 1 6 2 8 9 7 7 6 8
33 32 34 34 33 26 3 2 3 2 3 8 6 4 5 10 5 2 3 9 4 5 3 2 4 6 5 5 4 2 2 5 5 3 4 3 4 5 1 6 7 7 7 7 9
33 35 37 37 30 11 1 3 1 2 6 10 5 7 8 3 5 4 7 5 5 4 2 5 6 5 5 4 4 3 1 6 4 4 4 1 5 4 3 2 4 6 6 8 4
32 35 40 38 17 6 5 3 7 4 1 7 5 5 6 10 7 7 6 5 3 5 4 5 3 4 3 1 2 2 3 4 6 2 4 4 4 4 1 1 5 5 6 7 10
33 36 42 37 3 11 7 3 17 11 4 6 4 6 5 5 4 8 6 6 2 6 7 3 4 2 2 4 4 6 8 5 2 4 4 2 3 5 4 6 4 5 5 9 9
33 37 42 27 13 4 2 7 6 1 4 2 3 1 1 8 3 4 4 6 7 4 5 6 3 4 3 5 6 8 5 3 2 3 4 3 3 7 3 6 5 5 7 7 8
34 39 39 11 10 8 4 5 4 5 5 4 4 3 3 1 2 3 3 5 5 5 1 5 3 4 7 4 7 4 4 8 6 2 3 2 4 6 5 7 4 4 6 7 5
38 39 30 15 4 7 5 3 5 3 5 4 2 4 2 3 1 2 5 5 6 5 2 2 5 3 4 3 1 6 6 2 2 4 5 1 1 10 4 6 7 7 4 7 3
42 35 18 16 3 15 2 5 2 4 5 4 2 3 6 4 3 1 5 5 1 5 3 5 4 6 4 7 6 4 7 6 5 4 4 1 5 5 3 5 3 4 1 4 5
38 19 11 4 16 10 4 3 6 5 3 6 4 3 1 3 4 3 5 8 9 7 5 5 5 4 4 3 6 3 3 4 8 4 3 3 7 7 7 10 4 6 8 8 6
27 11 6 9 17 4 4 5 4 4 5 2 3 1 2 2 4 6 7 6 7 10 6 4 2 3 4 3 3 4 6 4 3 4 3 5 6 6 4 8 7 6 8 7 6
7 4 12 9 9 5 4 6 5 6 4 3 2 3 5 3 8 6 7 4 9 7 6 6 3 7 3 2 3 1 2 7 6 4 5 2 6 7 7 8 10 7 7 8 8
7 2 8 3 3 1 4 5 3 4 4 7 3 9 7 7 4 7 11 8 10 11 11 7 5 4 7 3 3 3 5 5 5 4 1 2 6 1 5 5 6 8 9 9 7
3 3 3 3 2 1 5 3 4 5 6 5 4 6 3 5 3 8 9 8 12 9 10 9 1 2 9 7 2 3 2 5 6 4 5 4 6 2 6 6 3 8 5 8 14
2 2 3 3 0 3 3 4 3 5 6 5 5 1 2 5 7 4 3 6 13 11 12 9 4 7 7 6 4 4 3 4 4 4 5 6 7 11 2 6 7 8 11 14 15
1 1 1 1 2 2 1 2 3 3 2 3 3 2 4 5 3 5 1 1 7 7 5 7 6 3 0 6 3 4 6 6 4 5 5 5 7 10 5 7 7 9 16 16 12
1 2 4 2 3 3 1 3 4 2 3 6 3 13 12 5 5 3 5 1 5 3 5 3 4 3 5 5 4 3 2 4 1 3 4 3 7 5 4 4 8 16 17 15 12
2 2 1 3 2 0 3 4 5 5 5 6 6 4 7 7 4 4 5 8 5 6 4 4 7 4 4 2 4 4 4 3 2 3 3 3 5 4 3 5 12 18 19 17 15
Wind_Direction
358 357 354 351 347 345 339 333 325 317 311 308 316 323 323 323 320 320 260 244 191 191 7 345 260 262 186 252 191 138 74 245 229 156 232 152 173 139 4 123 115 140 149 142 139
358 355 353 351 347 341 338 330 323 316 311 307 313 319 325 328 325 302 316 264 255 256 240 201 283 254 206 235 191 114 118 222 211 203 196 174 166 140 116 170 27 71 94 128 139
358 354 352 349 345 342 336 330 319 313 309 305 307 317 326 332 342 256 31 33 262 230 239 262 286 131 78 322 173 192 217 251 250 170 180 166 162 124 132 272 212 163 142 143 146
2 357 352 349 344 341 335 329 317 310 304 303 304 313 319 337 256 148 13 347 20 108 172 57 9 44 51 327 260 268 241 219 276 135 143 160 138 124 169 224 172 154 153 151 161
7 4 0 355 346 339 333 326 318 307 301 299 304 324 354 204 248 267 312 348 10 79 88 119 33 27 14 321 322 179 308 335 291 132 169 143 170 152 199 132 124 135 155 166 173
5 2 359 355 349 341 332 324 316 305 296 290 303 342 44 248 260 271 292 7 30 35 88 159 151 203 252 249 163 271 295 299 263 171 148 160 130 134 144 135 139 146 163 173 181
360 358 355 352 348 345 332 324 312 302 286 281 297 25 345 235 240 274 304 297 312 298 238 230 187 94 353 306 309 284 327 335 247 169 187 138 96 214 143 146 158 156 160 174 191
358 355 353 351 348 345 337 322 304 276 240 259 13 64 251 274 280 271 271 275 294 272 254 265 180 153 179 291 353 20 43 347 347 3 342 109 259 275 149 150 170 171 156 169 192
356 353 351 348 346 345 339 327 314 153 153 139 80 104 268 298 274 280 250 241 262 300 267 152 134 109 33 56 3 15 328 1 321 38 326 92 225 346 142 157 173 180 182 166 192
353 351 348 346 343 342 346 38 107 101 115 106 44 6 269 283 299 306 220 197 167 320 66 77 56 82 37 64 260 308 345 315 286 317 47 73 142 22 139 166 177 179 191 187 216
351 348 346 344 341 337 1 156 20 348 223 196 198 234 288 335 313 339 158 123 97 53 147 2 103 208 181 182 188 199 198 283 274 245 77 354 55 16 252 150 170 197 198 209 228
347 346 344 343 336 340 86 138 197 324 303 233 231 280 272 2 306 303 166 111 141 176 136 28 217 150 167 176 218 206 330 290 295 19 91 326 56 62 29 153 187 181 220 216 222
345 343 342 343 340 34 320 211 338 257 298 292 190 196 228 150 212 257 141 132 140 139 160 155 218 141 100 274 273 234 205 243 243 67 63 131 12 341 309 285 191 179 207 239 219
342 340 340 341 349 330 281 245 328 163 43 279 268 267 150 164 234 213 185 137 113 192 139 225 266 219 178 247 145 307 186 229 204 104 185 32 255 262 247 292 215 208 216 239 244
338 337 336 337 296 262 230 336 134 74 358 240 225 186 285 159 162 208 191 54 169 168 112 234 167 119 284 213 175 248 48 354 92 109 112 6 64 267 30 263 246 201 236 234 233
333 333 331 325 290 257 260 310 140 45 261 340 131 150 166 330 125 121 128 81 155 146 85 215 256 219 212 220 167 216 101 35 45 76 35 334 137 284 194 202 198 188 214 233 208
329 328 317 282 238 147 46 99 41 138 325 342 267 159 178 161 197 128 132 140 154 118 81 325 259 255 202 324 123 87 65 343 341 20 222 120 61 241 225 216 183 181 197 176 186
329 328 312 268 217 235 314 59 178 252 274 298 301 116 171 154 241 101 111 149 298 89 116 147 302 171 176 190 191 159 153 152 204 189 252 111 240 258 235 160 179 262 220 157 173
331 327 305 319 196 166 86 100 213 215 281 317 329 112 232 186 160 135 181 189 187 160 154 137 271 286 220 144 139 179 175 167 104 24 54 283 292 300 237 259 238 218 178 181 167
328 326 302 310 170 152 81 220 238 228 308 16 57 4 100 183 158 157 181 204 191 182 149 195 298 241 291 104 42 192 152 69 15 124 229 297 288 245 237 202 174 183 177 163 155
336 7 351 127 149 55 154 229 266 251 252 312 260 276 230 230 189 185 208 255 183 171 126 138 126 296 342 21 155 152 92 55 110 101 156 217 265 219 216 201 175 176 167 172 181
342 32 4 116 61 4 160 201 243 272 256 257 231 209 201 188 233 215 206 214 166 145 158 190 137 217 244 257 195 210 177 132 122 217 172 159 269 168 262 195 172 144 166 178 171
348 268 51 321 125 285 289 283 231 248 231 238 255 209 187 222 217 199 199 211 152 143 155 175 219 21 347 353 338 69 82 96 109 94 189 143 267 273 82 121 150 143 128 92 90
350 25 332 52 204 128 1 266 295 255 257 230 254 283 348 266 218 271 247 195 175 173 121 99 131 159 190 207 163 159 167 176 111 117 173 224 286 299 159 168 178 111 95 101 101
37 314 205 294 314 326 283 295 277 295 258 291 324 135 349 282 327 206 275 172 52 119 89 132 181 126 287 248 229 159 172 179 168 160 157 238 209 266 253 218 169 126 121 118 119
53 2 348 279 309 303 211 223 252 281 32 279 334 342 343 258 229 268 170 130 161 33 109 1 169 109 5 356 91 110 161 187 136 138 271 252 276 245 321 125 114 137 137 133 138
344 310 130 289 329 253 247 289 287 15 256 241 5 8 356 323 323 95 63 88 104 136 125 113 132 119 188 338 57 13 243 203 258 170 203 211 245 315 272 219 147 150 154 157 164